Location: Rumah Apan
(2.7833°N, 113.9500°E)
Time: 17:17:13
(UTC+00:00)

Meteor 1-4 Rocket - Pass Details

Date: 25 July 2021
Orbit: 447 x 498 km, 81.2° (Epoch: 18 September)

Event Time Altitude Azimuth Distance (km) Brightness Sun altitude
Rises 11:49:07 0° 341° (NNW) 2,543 6.8 -17.4°
Reaches altitude 10° 11:51:19 10° 331° (NNW) 1,672 6.0 -17.9°
Maximum altitude 11:54:41 34° 265° (W) 824 4.2 -18.7°
Drops below altitude 10° 11:58:05 10° 199° (SSW) 1,695 5.3 -19.5°
Enters shadow 11:59:34 - 192° (SSW) 2,270 5.9 -19.8°
